Location: ShareBrained
(45.5589°N, 122.6491°W)
Time: 06:08:47
(UTC-07:00)

NOAA 19 - Visible Passes

Search period start: 24 August 2019 00:00
Search period end: 03 September 2019 00:00
Orbit: 841 x 861 km, 99.2° (Epoch: 23 August)

Date Brightness Start Highest point End Pass type
(mag) Time Alt. Az. Time Alt. Az. Time Alt. Az.
24 Aug 7.9 05:25:20 10° NE 05:28:58 18° E 05:32:36 10° SE visible
25 Aug 8.1 05:14:21 10° ENE 05:17:09 14° E 05:19:54 10° ESE visible
26 Aug 8.4 05:04:07 10° ENE 05:05:17 11° E 05:06:27 10° E visible
30 Aug 7.3 05:55:06 10° NE 05:59:56 31° E 06:04:44 10° SSE visible
31 Aug 7.6 05:43:41 10° NE 05:48:09 25° E 05:52:35 10° SSE visible
01 Sep 7.9 05:32:24 10° NE 05:36:21 20° E 05:40:17 10° SE visible
02 Sep 8.0 05:21:17 10° NE 05:24:32 16° E 05:27:45 10° SE visible
